GW4488 Weather Reports


time (UTC)temp
F
wind
direction
speed
knots
gust
knots
rain 1hr
in
rain 24hr
in
rain mn
in
humidity
%
barometer
mb
20260504050503 41 276 0.9 3.5 0.00 0.00 0.00 86 1040.0
20260504045959 41 249 0.0 2.6 0.00 0.00 0.00 86 1040.1
20260504045455 41 270 0.9 1.7 0.00 0.00 0.00 86 1040.4
20260504044951 41 270 0.9 1.7 0.00 0.00 0.00 85 1040.1
20260504044449 42 203 0.9 1.7 0.00 0.00 0.00 85 1040.2
20260504043946 42 265 1.7 1.7 0.00 0.00 0.00 84 1040.1
20260504043443 43 238 2.6 2.6 0.00 0.00 0.00 84 1040.3
20260504042940 43 257 0.0 2.6 0.00 0.00 0.00 83 1040.2
20260504042437 43 228 1.7 1.7 0.00 0.00 0.00 84 1040.0
20260504041933 44 285 0.9 1.7 0.00 0.00 0.00 81 1040.2
20260504041430 44 283 0.9 1.7 0.00 0.00 0.00 81 1040.1
20260504040925 45 236 0.0 1.7 0.00 0.00 0.00 80 1040.2
20260504040424 45 291 0.9 1.7 0.00 0.00 0.00 81 1040.2
20260504035919 45 264 0.0 2.6 0.00 0.00 0.00 80 1040.3
20260504035417 45 277 0.0 2.6 0.00 0.00 0.00 81 1040.2
20260504034908 46 263 0.9 1.7 0.00 0.00 0.00 82 1040.3
20260504034406 46 243 0.9 1.7 0.00 0.00 0.00 82 1040.3
20260504033903 46 254 1.7 1.7 0.00 0.00 0.00 81 1040.1
20260504033401 47 257 1.7 1.7 0.00 0.00 0.00 80 1040.2
20260504032857 47 277 0.9 1.7 0.00 0.00 0.00 77 1040.3
20260504032354 47 253 1.7 2.6 0.00 0.00 0.00 75 1040.2
20260504031850 47 263 0.9 1.7 0.00 0.00 0.00 79 1040.3
20260504031347 47 262 0.9 1.7 0.00 0.00 0.00 78 1040.4
20260504030844 48 270 1.7 2.6 0.00 0.00 0.00 78 1040.4
20260504030342 48 257 0.9 1.7 0.00 0.00 0.00 79 1040.4
20260504025837 48 250 1.7 1.7 0.00 0.00 0.00 78 1040.4
20260504025335 48 243 0.9 2.6 0.00 0.00 0.00 76 1040.5
20260504024831 48 270 1.7 1.7 0.00 0.00 0.00 75 1040.5
20260504024328 48 240 1.7 1.7 0.00 0.00 0.00 74 1040.5
20260504023824 49 254 1.7 1.7 0.00 0.00 0.00 73 1040.5
20260504023321 49 275 1.7 1.7 0.00 0.00 0.00 73 1040.4
20260504022817 49 252 1.7 2.6 0.00 0.00 0.00 73 1040.4
20260504022314 49 270 1.7 2.6 0.00 0.00 0.00 72 1040.4
20260504021810 49 265 1.7 2.6 0.00 0.00 0.00 71 1040.5
20260504021308 50 264 0.9 1.7 0.00 0.00 0.00 66 1040.4
20260504020805 50 257 0.9 1.7 0.00 0.00 0.00 65 1040.6
20260504020301 51 263 2.6 3.5 0.00 0.00 0.00 63 1040.5
20260504015757 52 286 0.9 1.7 0.00 0.00 0.00 64 1040.5
20260504015254 52 279 1.7 3.5 0.00 0.00 0.00 57 1040.5
20260504014750 52 260 3.5 3.5 0.00 0.00 0.00 60 1040.5
20260504014246 53 259 1.7 2.6 0.00 0.00 0.00 61 1040.4
20260504013744 53 239 2.6 2.6 0.00 0.00 0.00 54 1040.7
20260504013242 53 278 0.9 4.3 0.00 0.00 0.00 52 1040.7
20260504012738 53 236 2.6 5.2 0.00 0.00 0.00 50 1040.9
20260504012236 53 265 2.6 6.1 0.00 0.00 0.00 50 1040.9
20260504011732 53 248 1.7 4.3 0.00 0.00 0.00 54 1040.9
20260504011229 54 270 0.9 2.6 0.00 0.00 0.00 51 1040.7
20260504010725 54 254 5.2 7.8 0.00 0.00 0.00 49 1040.8
20260504010220 53 286 1.7 5.2 0.00 0.00 0.00 56 1040.8
20260504005717 53 231 1.7 4.3 0.00 0.00 0.00 53 1040.3
20260504005215 54 275 0.0 2.6 0.00 0.00 0.00 57 1040.3
20260504004712 54 246 4.3 5.2 0.00 0.00 0.00 49 1040.3
20260504004209 54 270 2.6 3.5 0.00 0.00 0.00 52 1040.2
20260504003706 54 270 0.9 5.2 0.00 0.00 0.00 51 1040.4
20260504003203 54 231 2.6 7.0 0.00 0.00 0.00 48 1040.4
20260504002659 53 255 0.0 3.5 0.00 0.00 0.00 58 1040.3
20260504002156 54 285 1.7 2.6 0.00 0.00 0.00 51 1040.2
20260504001654 55 343 1.7 5.2 0.00 0.00 0.00 50 1040.5
20260504001150 54 342 0.9 7.8 0.00 0.00 0.00 50 1040.0
20260504000647 53 297 2.6 4.3 0.00 0.00 0.00 58 1040.3
20260504000145 54 246 2.6 3.5 0.00 0.00 0.00 50 1040.3
20260503235643 54 251 2.6 2.6 0.00 0.00 0.00 51 1040.0
20260503235139 54 210 1.7 4.3 0.00 0.00 0.00 54 1040.3
20260503234637 54 254 4.3 4.3 0.00 0.00 0.00 50 1040.2
20260503234135 55 290 1.7 4.3 0.00 0.00 0.00 50 1040.1
20260503233632 55 227 7.0 7.0 0.00 0.00 0.00 49 1040.1
20260503233127 55 270 0.9 4.3 0.00 0.00 0.00 49 1039.9
20260503232624 55 309 2.6 7.8 0.00 0.00 0.00 51 1039.9
20260503232122 54 306 3.5 7.0 0.00 0.00 0.00 51 1040.0
20260503231620 55 267 3.5 6.1 0.00 0.00 0.00 50 1039.6
20260503231116 54 259 2.6 3.5 0.00 0.00 0.00 56 1039.2
20260503230613 55 287 2.6 2.6 0.00 0.00 0.00 55 1039.4
20260503230110 55 243 2.6 3.5 0.00 0.00 0.00 49 1039.4
20260503225608 55 279 1.7 3.5 0.00 0.00 0.00 50 1039.4
20260503225102 56 270 1.7 2.6 0.00 0.00 0.00 47 1039.2
20260503224600 57 267 2.6 5.2 0.00 0.00 0.00 47 1039.2
20260503224058 57 274 2.6 4.3 0.00 0.00 0.00 45 1039.6
20260503223556 57 300 2.6 2.6 0.00 0.00 0.00 46 1039.4
20260503223050 58 263 3.5 4.3 0.00 0.00 0.00 43 1039.4
20260503222549 58 286 1.7 2.6 0.00 0.00 0.00 46 1039.3
20260503222047 58 294 2.6 3.5 0.00 0.00 0.00 48 1039.6
20260503221545 58 265 1.7 3.5 0.00 0.00 0.00 48 1039.3
20260503221042 57 281 2.6 4.3 0.00 0.00 0.00 49 1039.8
20260503220538 57 259 2.6 5.2 0.00 0.00 0.00 45 1039.5
20260503220035 57 266 2.6 4.3 0.00 0.00 0.00 48 1039.5
20260503215532 57 275 1.7 2.6 0.00 0.00 0.00 46 1039.6
20260503215029 56 270 0.0 3.5 0.00 0.00 0.00 46 1039.8
20260503214527 56 270 1.7 4.3 0.00 0.00 0.00 45 1039.6
20260503214023 56 250 2.6 5.2 0.00 0.00 0.00 47 1039.8
20260503213522 57 274 2.6 3.5 0.00 0.00 0.00 51 1039.5
20260503213018 57 263 2.6 4.3 0.00 0.00 0.00 48 1039.6
20260503212516 58 300 3.5 4.3 0.00 0.00 0.00 46 1039.6
20260503212013 58 330 1.7 7.0 0.00 0.00 0.00 50 1039.9
20260503211510 59 274 2.6 2.6 0.00 0.00 0.00 44 1039.5
20260503211011 56 270 0.9 4.3 0.00 0.00 0.00 47 1039.5
20260503210508 57 285 2.6 2.6 0.00 0.00 0.00 47 1039.6
20260503210003 57 209 0.9 4.3 0.00 0.00 0.00 46 1039.8
20260503205500 57 270 1.7 5.2 0.00 0.00 0.00 51 1039.9
20260503204956 57 255 6.1 6.1 0.00 0.00 0.00 50 1040.0
20260503204453 57 264 0.9 2.6 0.00 0.00 0.00 47 1039.8
20260503203950 57 259 4.3 11.3 0.00 0.00 0.00 47 1040.1
20260503203448 56 296 2.6 7.8 0.00 0.00 0.00 48 1040.1
20260503202944 57 283 2.6 4.3 0.00 0.00 0.00 46 1040.1
20260503202443 57 276 1.7 3.5 0.00 0.00 0.00 48 1040.1
20260503201941 57 266 1.7 2.6 0.00 0.00 0.00 48 1040.1
20260503201437 56 252 4.3 6.1 0.00 0.00 0.00 47 1040.2
20260503200935 55 248 4.3 7.8 0.00 0.00 0.00 47 1040.3
20260503200431 54 353 1.7 13.0 0.00 0.00 0.00 48 1040.4
20260503195928 55 273 6.1 7.0 0.00 0.00 0.00 47 1040.4
20260503195426 56 279 0.0 2.6 0.00 0.00 0.00 53 1040.6
20260503194922 55 253 2.6 4.3 0.00 0.00 0.00 48 1040.7
20260503194419 55 232 4.3 5.2 0.00 0.00 0.00 50 1040.5
20260503193914 55 261 1.7 7.0 0.00 0.00 0.00 46 1040.5
20260503193410 55 258 2.6 4.3 0.00 0.00 0.00 48 1040.6
20260503192906 55 299 9.6 11.3 0.00 0.00 0.00 45 1040.6
20260503192401 57 295 3.5 5.2 0.00 0.00 0.00 50 1040.7
20260503191858 58 275 3.5 4.3 0.00 0.00 0.00 49 1040.6
20260503191355 57 312 1.7 4.3 0.00 0.00 0.00 47 1040.8
20260503190852 59 274 1.7 6.1 0.00 0.00 0.00 44 1040.6
20260503190349 56 275 1.7 6.1 0.00 0.00 0.00 51 1040.8
20260503185846 55 256 5.2 7.0 0.00 0.00 0.00 45 1040.8
20260503185343 55 286 3.5 4.3 0.00 0.00 0.00 46 1040.8
20260503184842 55 264 5.2 11.3 0.00 0.00 0.00 46 1040.8
20260503184338 56 218 0.0 13.0 0.00 0.00 0.00 43 1041.0
20260503183834 58 277 3.5 10.4 0.00 0.00 0.00 40 1040.7
20260503183331 59 246 4.3 5.2 0.00 0.00 0.00 46 1040.9
20260503182829 56 267 2.6 11.3 0.00 0.00 0.00 41 1040.9
20260503182328 56 311 5.2 18.2 0.00 0.00 0.00 41 1040.9
20260503181825 59 270 1.7 6.1 0.00 0.00 0.00 42 1040.8
20260503181322 60 109 4.3 4.3 0.00 0.00 0.00 37 1040.9
20260503180818 60 237 1.7 4.3 0.00 0.00 0.00 46 1041.0
20260503180316 58 165 2.6 7.8 0.00 0.00 0.00 39 1041.3
20260503175812 57 242 7.0 7.0 0.00 0.00 0.00 43 1041.4
20260503175311 56 286 0.0 11.3 0.00 0.00 0.00 42 1041.4
20260503174806 55 303 3.5 8.7 0.00 0.00 0.00 45 1041.1
20260503174305 55 286 1.7 11.3 0.00 0.00 0.00 45 1041.4
20260503173800 55 175 0.9 11.3 0.00 0.00 0.00 44 1041.4
20260503173256 55 270 2.6 2.6 0.00 0.00 0.00 45 1041.6
20260503172753 56 172 0.0 9.6 0.00 0.00 0.00 40 1041.4
20260503172250 56 279 0.0 9.6 0.00 0.00 0.00 43 1041.5
20260503171746 59 258 6.1 7.0 0.00 0.00 0.00 40 1041.6
20260503171244 56 277 0.0 10.4 0.00 0.00 0.00 45 1041.7
20260503170741 56 178 2.6 7.8 0.00 0.00 0.00 42 1041.6
20260503170237 55 277 0.0 6.1 0.00 0.00 0.00 42 1041.8
20260503160200 51 255 7.8 16.5 0.00 0.00 0.00 47 1042.8
20260503150629 50 279 5.2 6.1 0.00 0.00 0.00 51 1043.3
20260503150125 50 280 3.5 9.6 0.00 0.00 0.00 53 1043.2
20260503131014 48 306 2.6 3.5 0.00 0.00 0.00 50 1043.6
20260503130511 47 270 1.7 4.3 0.00 0.00 0.00 56 1043.6
20260503110401 32 294 0.9 1.7 0.00 0.00 0.00 99 1043.3
20260503090252 35 270 0.9 2.6 0.00 0.00 0.00 96 1042.9
20260503081225 35 275 1.7 1.7 0.00 0.00 0.00 96 1042.8
20260503080720 35 258 0.9 1.7 0.00 0.00 0.00 96 1042.7
20260503080218 35 249 0.0 1.7 0.00 0.00 0.00 96 1042.8
20260503072654 35 270 0.9 1.7 0.00 0.00 0.00 96 1042.7
20260503072151 35 270 0.9 1.7 0.00 0.00 0.00 96 1042.7
20260503071648 35 275 1.7 1.7 0.00 0.00 0.00 97 1042.8
20260503071145 35 270 1.7 1.7 0.00 0.00 0.00 97 1042.9
20260503070642 35 270 0.9 1.7 0.00 0.00 0.00 97 1042.9
20260503070140 35 270 1.7 1.7 0.00 0.00 0.00 97 1042.7